| time (UTC) | temp F | wind direction | speed knots | gust knots | rain 1hr in | rain 24hr in | rain mn in | humidity % | barometer mb |
| 20260902091433 | 67 | 4 | 2.6 | 5.2 | 0.00 | 0.00 | 0.00 | 53 | 1008.3 |
| 20260902090428 | 67 | 214 | 3.5 | 5.2 | 0.00 | 0.00 | 0.00 | 53 | 1008.2 |
| 20260902085407 | 67 | 229 | 3.5 | 5.2 | 0.00 | 0.00 | 0.00 | 53 | 1008.2 |
| 20260902083246 | 68 | 221 | 2.6 | 5.2 | 0.00 | 0.00 | 0.00 | 51 | 1008.3 |
| 20260902082247 | 67 | 4 | 3.5 | 5.2 | 0.00 | 0.00 | 0.00 | 51 | 1008.3 |
| 20260902081223 | 68 | 215 | 2.6 | 7.0 | 0.00 | 0.00 | 0.00 | 50 | 1008.4 |
| 20260902080215 | 69 | 4 | 3.5 | 7.0 | 0.00 | 0.00 | 0.00 | 49 | 1008.4 |
| 20260902074035 | 69 | 215 | 2.6 | 5.2 | 0.00 | 0.00 | 0.00 | 49 | 1008.5 |
| 20260902073044 | 69 | 223 | 2.6 | 4.3 | 0.00 | 0.00 | 0.00 | 49 | 1008.5 |
| 20260902072020 | 69 | 214 | 2.6 | 4.3 | 0.00 | 0.00 | 0.00 | 49 | 1008.5 |
| 20260902070956 | 69 | 221 | 2.6 | 4.3 | 0.00 | 0.00 | 0.00 | 49 | 1008.4 |
| 20260902065946 | 69 | 223 | 2.6 | 4.3 | 0.00 | 0.00 | 0.00 | 49 | 1008.5 |
| 20260902064923 | 69 | 215 | 3.5 | 5.2 | 0.00 | 0.00 | 0.00 | 49 | 1008.5 |
| 20260902063915 | 69 | 212 | 3.5 | 5.2 | 0.00 | 0.00 | 0.00 | 49 | 1008.5 |
| 20260902062908 | 69 | 221 | 2.6 | 4.3 | 0.00 | 0.00 | 0.00 | 48 | 1008.5 |
| 20260902060723 | 69 | 212 | 2.6 | 4.3 | 0.00 | 0.00 | 0.00 | 48 | 1008.6 |
| 20260902054626 | 69 | 218 | 1.7 | 4.3 | 0.00 | 0.00 | 0.00 | 48 | 1008.7 |
| 20260902053621 | 70 | 4 | 1.7 | 3.5 | 0.00 | 0.00 | 0.00 | 48 | 1008.7 |
| 20260902052550 | 70 | 4 | 1.7 | 4.3 | 0.00 | 0.00 | 0.00 | 47 | 1008.6 |
| 20260902051518 | 71 | 215 | 2.6 | 5.2 | 0.00 | 0.00 | 0.00 | 47 | 1008.8 |
| 20260902050459 | 71 | 194 | 2.6 | 6.1 | 0.00 | 0.00 | 0.00 | 46 | 1008.8 |
| 20260902045519 | 71 | 219 | 3.5 | 6.1 | 0.00 | 0.00 | 0.00 | 46 | 1008.8 |
| 20260902044449 | 71 | 225 | 2.6 | 7.0 | 0.00 | 0.00 | 0.00 | 46 | 1008.8 |
| 20260902043418 | 72 | 191 | 3.5 | 8.7 | 0.00 | 0.00 | 0.00 | 46 | 1008.7 |
| 20260902041215 | 72 | 175 | 2.6 | 5.2 | 0.00 | 0.00 | 0.00 | 46 | 1008.6 |
| 20260902035054 | 72 | 4 | 3.5 | 7.8 | 0.00 | 0.00 | 0.00 | 45 | 1008.4 |
| 20260902034022 | 72 | 195 | 2.6 | 7.8 | 0.00 | 0.00 | 0.00 | 45 | 1008.3 |
| 20260902030752 | 74 | 4 | 3.5 | 7.8 | 0.00 | 0.00 | 0.00 | 43 | 1007.7 |
| 20260902025728 | 74 | 195 | 1.7 | 5.2 | 0.00 | 0.00 | 0.00 | 43 | 1007.5 |
| 20260902024737 | 74 | 210 | 2.6 | 4.3 | 0.00 | 0.00 | 0.00 | 43 | 1007.3 |
| 20260902023734 | 75 | 190 | 2.6 | 7.8 | 0.00 | 0.00 | 0.00 | 42 | 1007.0 |
| 20260902022753 | 75 | 4 | 3.5 | 7.8 | 0.00 | 0.00 | 0.00 | 42 | 1006.9 |
| 20260902021815 | 75 | 200 | 3.5 | 7.8 | 0.00 | 0.00 | 0.00 | 41 | 1006.8 |
| 20260902020747 | 76 | 203 | 3.5 | 7.8 | 0.00 | 0.00 | 0.00 | 41 | 1006.7 |
| 20260902015722 | 77 | 191 | 3.5 | 9.6 | 0.00 | 0.00 | 0.00 | 40 | 1006.6 |
| 20260902014733 | 77 | 161 | 3.5 | 9.6 | 0.00 | 0.00 | 0.00 | 39 | 1006.4 |
| 20260902013735 | 78 | 213 | 2.6 | 5.2 | 0.00 | 0.00 | 0.00 | 37 | 1006.3 |
| 20260902012743 | 79 | 179 | 2.6 | 5.2 | 0.00 | 0.00 | 0.00 | 35 | 1006.2 |
| 20260902011717 | 80 | 196 | 1.7 | 7.0 | 0.00 | 0.00 | 0.00 | 34 | 1006.3 |
| 20260902010740 | 81 | 189 | 3.5 | 7.0 | 0.00 | 0.00 | 0.00 | 34 | 1006.3 |
| 20260902005717 | 80 | 160 | 2.6 | 9.6 | 0.00 | 0.00 | 0.00 | 35 | 1006.3 |
| 20260902004647 | 80 | 200 | 4.3 | 9.6 | 0.00 | 0.00 | 0.00 | 36 | 1006.3 |
| 20260902003632 | 81 | 169 | 4.3 | 7.8 | 0.00 | 0.00 | 0.00 | 34 | 1006.3 |
| 20260902001438 | 82 | 146 | 5.2 | 11.3 | 0.00 | 0.00 | 0.00 | 33 | 1006.4 |
| 20260902000455 | 82 | 149 | 5.2 | 11.3 | 0.00 | 0.00 | 0.00 | 34 | 1006.6 |
| 20260901235422 | 82 | 159 | 5.2 | 11.3 | 0.00 | 0.00 | 0.00 | 35 | 1006.6 |
| 20260901234419 | 83 | 4 | 4.3 | 12.2 | 0.00 | 0.00 | 0.00 | 33 | 1006.6 |
| 20260901233354 | 83 | 146 | 7.0 | 12.2 | 0.00 | 0.00 | 0.00 | 32 | 1006.6 |
| 20260901232322 | 85 | 127 | 4.3 | 13.0 | 0.00 | 0.00 | 0.00 | 32 | 1006.5 |
| 20260901231341 | 84 | 143 | 7.0 | 13.0 | 0.00 | 0.00 | 0.00 | 30 | 1006.6 |
| 20260901230338 | 84 | 148 | 5.2 | 12.2 | 0.00 | 0.00 | 0.00 | 32 | 1006.6 |
| 20260901225324 | 84 | 177 | 6.1 | 13.0 | 0.00 | 0.00 | 0.00 | 31 | 1006.7 |
| 20260901224256 | 84 | 96 | 6.1 | 13.0 | 0.00 | 0.00 | 0.00 | 31 | 1006.8 |
| 20260901223245 | 84 | 156 | 5.2 | 11.3 | 0.00 | 0.00 | 0.00 | 31 | 1006.7 |
| 20260901222251 | 84 | 154 | 5.2 | 13.0 | 0.00 | 0.00 | 0.00 | 32 | 1006.9 |
| 20260901220152 | 84 | 180 | 2.6 | 15.6 | 0.00 | 0.00 | 0.00 | 33 | 1006.9 |
| 20260901214030 | 84 | 156 | 6.1 | 11.3 | 0.00 | 0.00 | 0.00 | 33 | 1007.1 |
| 20260901213030 | 84 | 163 | 6.1 | 10.4 | 0.00 | 0.00 | 0.00 | 33 | 1007.2 |
| 20260901210833 | 85 | 163 | 4.3 | 11.3 | 0.00 | 0.00 | 0.00 | 34 | 1007.5 |
| 20260901205802 | 83 | 155 | 2.6 | 12.2 | 0.00 | 0.00 | 0.00 | 34 | 1007.7 |
| 20260901204804 | 83 | 137 | 5.2 | 12.2 | 0.00 | 0.00 | 0.00 | 35 | 1007.9 |
| 20260901203743 | 83 | 131 | 3.5 | 11.3 | 0.00 | 0.00 | 0.00 | 36 | 1008.0 |
| 20260901202756 | 82 | 238 | 4.3 | 11.3 | 0.00 | 0.00 | 0.00 | 37 | 1008.1 |
| 20260901200709 | 82 | 138 | 2.6 | 8.7 | 0.00 | 0.00 | 0.00 | 38 | 1008.4 |
| 20260901195721 | 81 | 107 | 2.6 | 8.7 | 0.00 | 0.00 | 0.00 | 39 | 1008.4 |
| 20260901194711 | 79 | 137 | 3.5 | 8.7 | 0.00 | 0.00 | 0.00 | 41 | 1008.6 |
| 20260901193638 | 79 | 217 | 1.7 | 11.3 | 0.00 | 0.00 | 0.00 | 42 | 1008.7 |
| 20260901192604 | 78 | 162 | 6.1 | 11.3 | 0.00 | 0.00 | 0.00 | 43 | 1008.8 |
| 20260901191537 | 78 | 140 | 5.2 | 10.4 | 0.00 | 0.00 | 0.00 | 43 | 1008.8 |
| 20260901190538 | 79 | 184 | 3.5 | 8.7 | 0.00 | 0.00 | 0.00 | 42 | 1008.8 |
| 20260901185538 | 78 | 134 | 4.3 | 10.4 | 0.00 | 0.00 | 0.00 | 44 | 1008.9 |
| 20260901184601 | 78 | 151 | 4.3 | 10.4 | 0.00 | 0.00 | 0.00 | 44 | 1009.0 |
| 20260901183543 | 78 | 184 | 3.5 | 9.6 | 0.00 | 0.00 | 0.00 | 44 | 1009.0 |
| 20260901182550 | 77 | 50 | 3.5 | 8.7 | 0.00 | 0.00 | 0.00 | 45 | 1009.2 |
| 20260901181610 | 78 | 153 | 4.3 | 8.7 | 0.00 | 0.00 | 0.00 | 45 | 1009.2 |
| 20260901175522 | 79 | 122 | 3.5 | 7.8 | 0.00 | 0.00 | 0.00 | 42 | 1009.4 |
| 20260901173316 | 77 | 138 | 4.3 | 11.3 | 0.00 | 0.00 | 0.00 | 44 | 1009.4 |
| 20260901172248 | 77 | 197 | 5.2 | 11.3 | 0.00 | 0.00 | 0.00 | 45 | 1009.5 |
| 20260901171226 | 77 | 131 | 4.3 | 8.7 | 0.00 | 0.00 | 0.00 | 46 | 1009.6 |
| 20260901170230 | 76 | 4 | 5.2 | 9.6 | 0.00 | 0.00 | 0.00 | 49 | 1009.5 |
| 20260901165234 | 74 | 155 | 4.3 | 9.6 | 0.00 | 0.00 | 0.00 | 52 | 1009.5 |
| 20260901163120 | 73 | 149 | 3.5 | 7.8 | 0.00 | 0.00 | 0.00 | 51 | 1009.1 |
| 20260901162136 | 75 | 226 | 2.6 | 7.8 | 0.00 | 0.00 | 0.00 | 50 | 1009.0 |
| 20260901161152 | 74 | 148 | 3.5 | 8.7 | 0.00 | 0.00 | 0.00 | 52 | 1009.1 |
| 20260901160203 | 74 | 127 | 3.5 | 8.7 | 0.00 | 0.00 | 0.00 | 53 | 1009.1 |
| 20260901155154 | 72 | 164 | 3.5 | 7.0 | 0.00 | 0.00 | 0.00 | 56 | 1009.0 |
| 20260901154145 | 70 | 154 | 2.6 | 7.0 | 0.00 | 0.00 | 0.00 | 60 | 1008.9 |
| 20260901152039 | 68 | 219 | 3.5 | 7.0 | 0.00 | 0.00 | 0.00 | 62 | 1008.6 |
| 20260901151044 | 68 | 4 | 3.5 | 7.0 | 0.00 | 0.00 | 0.00 | 63 | 1008.5 |
| 20260901150038 | 68 | 215 | 2.6 | 7.0 | 0.00 | 0.00 | 0.00 | 64 | 1008.5 |
| 20260901141637 | 67 | 213 | 3.5 | 7.8 | 0.00 | 0.00 | 0.00 | 65 | 1008.4 |
| 20260901140629 | 67 | 177 | 2.6 | 5.2 | 0.00 | 0.00 | 0.00 | 65 | 1008.3 |
| 20260901135627 | 66 | 211 | 2.6 | 5.2 | 0.00 | 0.00 | 0.00 | 66 | 1008.3 |
| 20260901131152 | 64 | 213 | 3.5 | 8.7 | 0.00 | 0.00 | 0.00 | 68 | 1008.1 |
| 20260901130128 | 64 | 210 | 3.5 | 8.7 | 0.00 | 0.00 | 0.00 | 68 | 1007.9 |
| 20260901125100 | 64 | 224 | 2.6 | 4.3 | 0.00 | 0.00 | 0.00 | 68 | 1007.8 |
| 20260901124055 | 64 | 217 | 3.5 | 6.1 | 0.00 | 0.00 | 0.00 | 68 | 1007.8 |
| 20260901123059 | 63 | 238 | 3.5 | 6.1 | 0.00 | 0.00 | 0.00 | 70 | 1007.6 |
| 20260901122110 | 63 | 243 | 3.5 | 5.2 | 0.00 | 0.00 | 0.00 | 70 | 1007.6 |
| 20260901121126 | 63 | 231 | 2.6 | 5.2 | 0.00 | 0.00 | 0.00 | 70 | 1007.6 |
| 20260901120054 | 63 | 230 | 2.6 | 5.2 | 0.00 | 0.00 | 0.00 | 70 | 1007.6 |
| 20260901115112 | 63 | 211 | 3.5 | 5.2 | 0.00 | 0.00 | 0.00 | 70 | 1007.6 |
| 20260901114056 | 63 | 227 | 2.6 | 4.3 | 0.00 | 0.00 | 0.00 | 69 | 1007.5 |
| 20260901113036 | 64 | 196 | 1.7 | 4.3 | 0.00 | 0.00 | 0.00 | 68 | 1007.7 |
| 20260901110858 | 65 | 179 | 1.7 | 2.6 | 0.00 | 0.00 | 0.00 | 61 | 1007.5 |
| 20260901105842 | 65 | 248 | 0.9 | 1.7 | 0.00 | 0.00 | 0.00 | 61 | 1007.4 |
| 20260901104823 | 64 | 248 | 0.0 | 1.7 | 0.00 | 0.00 | 0.00 | 64 | 1007.3 |
| 20260901103750 | 64 | 248 | 0.9 | 1.7 | 0.00 | 0.00 | 0.00 | 65 | 1007.3 |
| 20260901102750 | 65 | 248 | 0.9 | 1.7 | 0.00 | 0.00 | 0.00 | 66 | 1007.4 |
| 20260901101733 | 65 | 214 | 0.9 | 1.7 | 0.00 | 0.00 | 0.00 | 66 | 1007.5 |
| 20260901100736 | 65 | 206 | 0.0 | 1.7 | 0.00 | 0.00 | 0.00 | 65 | 1007.5 |
| 20260901095757 | 65 | 175 | 0.9 | 1.7 | 0.00 | 0.00 | 0.00 | 65 | 1007.4 |
| 20260901094733 | 66 | 177 | 0.9 | 2.6 | 0.00 | 0.00 | 0.00 | 63 | 1007.6 |
| 20260901093704 | 66 | 215 | 0.9 | 2.6 | 0.00 | 0.00 | 0.00 | 61 | 1007.6 |